Terminal Aerodrome Forecast
Issued by NWS Newport/Morehead City, NC

Home | Current Version | Previous Version | Text Only | Print | Product List | Glossary On
Versions: 1 2 3 4 5 6 7 8 9 10 11 12 13 14 15 16
000
FTUS42 KMHX 031931 AAA
TAFEWN
TAF AMD
KEWN 031931Z 0320/0418 25014G21KT 1 1/2SM TSRA FEW020 BKN028CB
     FM032030 21010KT P6SM VCTS BKN035CB
      TEMPO 0322/0402 3SM TSRA BKN020CB
     FM040400 22007KT P6SM VCSH SCT010 BKN100
     FM041500 24012KT P6SM SCT030=

USA.gov is the U.S. government's official web portal to all federal, state and local government web resources and services.